When you browse on this site, cookies collect data to enhance your experience and personalize the content and advertising you see.
Visit our Privacy Policy to learn more. By continuing to use the site, you agree to this use of cookies and data.
  • In Hungary
  • List of Countries
  • For 7 days
  • Water Temperature
  • Satellite Maps
  • Weather Map
  • News
  • Weather Widgets
  • user-avatar
    Login

    Hourly Weather Pohulanka

    Today, 25 May, Saturday

    Time Temperature Precipitation Wind Pressure Humidity
    00:00 +14°C° 0 mm 2 mps 741 mmHg 93%
    01:00 +13°C° 0 mm 2 mps 741 mmHg 93%
    02:00 +13°C° 0 mm 1 mps 741 mmHg 94%
    03:00 +13°C° 0 mm 1 mps 741 mmHg 94%
    04:00 +13°C° 0 mm 1 mps 741 mmHg 94%
    05:00 +12°C° 0 mm 1 mps 741 mmHg 94%
    06:00 +14°C° 0 mm 1 mps 742 mmHg 89%
    07:00 +16°C° 0 mm 2 mps 742 mmHg 84%
    08:00 +17°C° 0 mm 2 mps 742 mmHg 79%
    09:00 +18°C° 0.2 mm 3 mps 742 mmHg 75%
    10:00 +19°C° 0.2 mm 3 mps 741 mmHg 70%
    11:00 +20°C° 0.2 mm 4 mps 741 mmHg 65%
    12:00 +21°C° 0 mm 4 mps 741 mmHg 61%
    13:00 +21°C° 0 mm 4 mps 741 mmHg 57%
    14:00 +22°C° 0 mm 5 mps 741 mmHg 53%
    15:00 +22°C° 0 mm 5 mps 741 mmHg 55%
    16:00 +21°C° 0 mm 4 mps 741 mmHg 58%
    17:00 +21°C° 0 mm 4 mps 741 mmHg 60%
    18:00 +20°C° 0.2 mm 4 mps 741 mmHg 69%
    19:00 +18°C° 0.2 mm 3 mps 741 mmHg 77%
    20:00 +17°C° 0.2 mm 3 mps 741 mmHg 85%
    21:00 +15°C° 0 mm 2 mps 741 mmHg 88%
    22:00 +14°C° 0 mm 2 mps 741 mmHg 91%
    23:00 +13°C° 0 mm 2 mps 742 mmHg 94%

    Tomorrow, 26 May, Sunday

    Time Temperature Precipitation Wind Pressure Humidity
    00:00 +12°C° 0 mm 1 mps 742 mmHg 93%
    01:00 +11°C° 0 mm 1 mps 742 mmHg 93%
    02:00 +11°C° 0 mm 1 mps 742 mmHg 92%
    03:00 +11°C° 0 mm 1 mps 742 mmHg 93%
    04:00 +11°C° 0 mm 1 mps 742 mmHg 94%
    05:00 +9°C° 0 mm 2 mps 742 mmHg 95%
    06:00 +11°C° 0 mm 3 mps 742 mmHg 88%
    07:00 +12°C° 0 mm 4 mps 742 mmHg 81%
    08:00 +14°C° 0 mm 4 mps 743 mmHg 74%
    09:00 +15°C° 0 mm 5 mps 743 mmHg 69%
    10:00 +16°C° 0 mm 5 mps 742 mmHg 64%
    11:00 +17°C° 0 mm 5 mps 742 mmHg 60%
    12:00 +19°C° 0 mm 5 mps 742 mmHg 57%
    13:00 +19°C° 0 mm 5 mps 742 mmHg 55%
    14:00 +20°C° 0 mm 5 mps 742 mmHg 53%
    15:00 +20°C° 0 mm 5 mps 741 mmHg 54%
    16:00 +20°C° 0 mm 5 mps 741 mmHg 55%
    17:00 +20°C° 0 mm 5 mps 741 mmHg 56%
    18:00 +19°C° 0 mm 4 mps 741 mmHg 63%
    19:00 +17°C° 0 mm 3 mps 741 mmHg 70%
    20:00 +16°C° 0 mm 2 mps 741 mmHg 77%
    21:00 +15°C° 0 mm 2 mps 741 mmHg 79%
    22:00 +14°C° 0 mm 2 mps 741 mmHg 82%
    23:00 +13°C° 0 mm 2 mps 742 mmHg 84%

    Day after tomorrow, 27 May, Monday

    Time Temperature Precipitation Wind Pressure Humidity
    00:00 +12°C° 0 mm 3 mps 742 mmHg 85%
    01:00 +12°C° 0 mm 3 mps 742 mmHg 85%
    02:00 +11°C° 0 mm 3 mps 742 mmHg 86%
    03:00 +11°C° 0 mm 3 mps 742 mmHg 87%
    04:00 +11°C° 0 mm 3 mps 742 mmHg 87%
    05:00 +11°C° 0 mm 3 mps 742 mmHg 88%
    06:00 +13°C° 0 mm 3 mps 742 mmHg 83%
    07:00 +15°C° 0 mm 4 mps 742 mmHg 78%
    08:00 +18°C° 0 mm 4 mps 742 mmHg 73%
    09:00 +20°C° 0 mm 5 mps 742 mmHg 68%
    10:00 +21°C° 0 mm 5 mps 742 mmHg 63%
    11:00 +22°C° 0 mm 6 mps 742 mmHg 58%
    12:00 +23°C° 0.1 mm 6 mps 741 mmHg 57%
    13:00 +24°C° 0.1 mm 6 mps 741 mmHg 56%
    14:00 +25°C° 0.1 mm 5 mps 741 mmHg 55%
    15:00 +25°C° 0.1 mm 5 mps 741 mmHg 57%
    16:00 +25°C° 0.1 mm 5 mps 741 mmHg 60%
    17:00 +25°C° 0.1 mm 5 mps 740 mmHg 62%
    18:00 +22°C° 0.1 mm 5 mps 740 mmHg 69%
    19:00 +21°C° 0.1 mm 4 mps 740 mmHg 76%
    20:00 +19°C° 0.1 mm 4 mps 740 mmHg 83%
    21:00 +19°C° 0 mm 4 mps 741 mmHg 85%
    22:00 +18°C° 0 mm 3 mps 741 mmHg 87%
    23:00 +18°C° 0 mm 3 mps 741 mmHg 89%

    28 May, Tuesday

    Time Temperature Precipitation Wind Pressure Humidity
    00:00 +17°C° 0 mm 3 mps 741 mmHg 89%
    01:00 +17°C° 0 mm 3 mps 741 mmHg 90%
    02:00 +16°C° 0 mm 3 mps 741 mmHg 91%
    03:00 +16°C° 0 mm 3 mps 740 mmHg 91%
    04:00 +16°C° 0 mm 2 mps 740 mmHg 91%
    05:00 +16°C° 0 mm 2 mps 740 mmHg 90%
    06:00 +17°C° 0.2 mm 3 mps 740 mmHg 90%
    07:00 +18°C° 0.2 mm 3 mps 740 mmHg 89%
    08:00 +18°C° 0.2 mm 3 mps 740 mmHg 89%
    09:00 +18°C° 2.1 mm 3 mps 740 mmHg 91%
    10:00 +18°C° 2.1 mm 4 mps 739 mmHg 93%
    11:00 +17°C° 2.1 mm 4 mps 739 mmHg 95%
    12:00 +19°C° 0.6 mm 4 mps 739 mmHg 92%
    13:00 +20°C° 0.6 mm 4 mps 738 mmHg 89%
    14:00 +21°C° 0.6 mm 4 mps 738 mmHg 87%
    15:00 +22°C° 0.4 mm 4 mps 738 mmHg 83%
    16:00 +22°C° 0.4 mm 3 mps 738 mmHg 80%
    17:00 +24°C° 0.4 mm 3 mps 738 mmHg 77%
    18:00 +23°C° 0.7 mm 2 mps 738 mmHg 82%
    19:00 +21°C° 0.7 mm 2 mps 738 mmHg 86%
    20:00 +20°C° 0.7 mm 1 mps 738 mmHg 91%
    21:00 +20°C° 0.4 mm 1 mps 738 mmHg 92%
    22:00 +19°C° 0.4 mm 1 mps 738 mmHg 93%
    23:00 +18°C° 0.4 mm 2 mps 738 mmHg 95%

    29 May, Wednesday

    Time Temperature Precipitation Wind Pressure Humidity
    00:00 +17°C° 0 mm 2 mps 738 mmHg 96%
    01:00 +17°C° 0 mm 2 mps 738 mmHg 96%
    02:00 +17°C° 0 mm 3 mps 738 mmHg 97%
    03:00 +17°C° 0.9 mm 3 mps 738 mmHg 97%
    04:00 +17°C° 0.9 mm 3 mps 738 mmHg 98%
    05:00 +16°C° 0.9 mm 3 mps 738 mmHg 98%
    06:00 +17°C° 0.2 mm 2 mps 738 mmHg 96%
    07:00 +18°C° 0.2 mm 2 mps 739 mmHg 94%
    08:00 +19°C° 0.2 mm 2 mps 739 mmHg 93%
    09:00 +19°C° 0.9 mm 2 mps 739 mmHg 90%
    10:00 +20°C° 0.9 mm 3 mps 739 mmHg 87%
    11:00 +21°C° 0.9 mm 3 mps 740 mmHg 84%
    12:00 +20°C° 0.5 mm 4 mps 740 mmHg 84%
    13:00 +20°C° 0.5 mm 4 mps 740 mmHg 85%
    14:00 +20°C° 0.5 mm 5 mps 741 mmHg 85%
    15:00 +17°C° 0.1 mm 5 mps 741 mmHg 85%
    16:00 +16°C° 0.1 mm 6 mps 741 mmHg 86%
    17:00 +14°C° 0.1 mm 6 mps 742 mmHg 86%
    18:00 +14°C° 0 mm 6 mps 742 mmHg 86%
    19:00 +13°C° 0 mm 5 mps 743 mmHg 86%
    20:00 +12°C° 0 mm 5 mps 743 mmHg 86%
    21:00 +10°C° 0 mm 5 mps 744 mmHg 85%
    22:00 +10°C° 0 mm 5 mps 745 mmHg 84%
    23:00 +10°C° 0 mm 5 mps 745 mmHg 84%

    30 May, Thursday

    Time Temperature Precipitation Wind Pressure Humidity
    00:00 +10°C° 0 mm 5 mps 746 mmHg 83%
    01:00 +9°C° 0 mm 5 mps 746 mmHg 82%
    02:00 +10°C° 0 mm 4 mps 746 mmHg 81%
    03:00 +8°C° 0 mm 4 mps 747 mmHg 79%
    04:00 +7°C° 0 mm 4 mps 747 mmHg 77%
    05:00 +6°C° 0 mm 4 mps 748 mmHg 76%
    06:00 +8°C° 0 mm 3 mps 748 mmHg 72%
    07:00 +9°C° 0 mm 3 mps 748 mmHg 69%
    08:00 +10°C° 0 mm 3 mps 748 mmHg 65%
    09:00 +12°C° 0 mm 3 mps 748 mmHg 59%
    10:00 +13°C° 0 mm 3 mps 749 mmHg 54%
    11:00 +16°C° 0 mm 3 mps 749 mmHg 48%
    12:00 +17°C° 0 mm 3 mps 749 mmHg 48%
    13:00 +17°C° 0 mm 2 mps 749 mmHg 48%
    14:00 +18°C° 0 mm 2 mps 748 mmHg 47%
    15:00 +18°C° 0 mm 2 mps 748 mmHg 49%
    16:00 +18°C° 0 mm 2 mps 748 mmHg 50%
    17:00 +18°C° 0 mm 2 mps 748 mmHg 51%
    18:00 +17°C° 0 mm 2 mps 748 mmHg 58%
    19:00 +16°C° 0 mm 1 mps 747 mmHg 64%
    20:00 +14°C° 0 mm 1 mps 747 mmHg 70%
    21:00 +13°C° 0 mm 1 mps 747 mmHg 71%
    22:00 +12°C° 0 mm 1 mps 747 mmHg 72%
    23:00 +11°C° 0 mm 1 mps 747 mmHg 74%
    Show more